Weather History for Mena, AR

Change the Weather History Date:

Saturday, October 19, 2013

  Actual Average (KFSM) Record (KFSM)
Temperature  
Mean Temperature 50 °F -  
Max Temperature 60 °F 72 °F 90 °F (1899)
Min Temperature 41 °F 48 °F 29 °F (1989)
Degree Days  
Heating Degree Days 14    
Moisture  
Dew Point 43 °F    
Average Humidity 79    
Maximum Humidity 100    
Minimum Humidity 36    
Precipitation  
Precipitation 0.02 in - - ()
Sea Level Pressure  
Sea Level Pressure 30.09 in    
Wind  
Wind Speed 6 mph (NW)    
Max Wind Speed 13 mph    
Max Gust Speed 23 mph    
Visibility 10 miles    
Events Rain    
Averages and records for this station are not official NWS values.
T = Trace of Precipitation, MM = Missing Value Source: NWS Daily Summary

Daily Weather History Graph

Daily Weather History Graph

Search for Another Location

Airport:

Trip Planner

Search our weather history database for the weather conditions in past years. The results will help you decide how hot, cold, wet, or windy it might be!

Date:

Astronomy

Oct. 19, 2013 Rise Set
Actual Time 7:25 AM CDT 6:36 PM CDT
Civil Twilight 7:00 AM CDT 7:02 PM CDT
Nautical Twilight 6:31 AM CDT 7:31 PM CDT
Astronomical Twilight 6:01 AM CDT 8:00 PM CDT
Moon 7:08 PM CDT (10/19) 8:01 AM CDT (10/19)
Length of Visible Light 12h 02m
Length of Day
11h 11m
Waxing Gibbous, 99% of the Moon is Illuminated
Oct 19
Waxing Gibbous
Oct 26
Last Quarter
Nov 3
New
Nov 9
First Quarter
Nov 17
Full

Hourly Weather History & Observations

Time (CDT) Temp. Windchill Dew Point Humidity Pressure Visibility Wind Dir Wind Speed Gust Speed Precip Events Conditions
12:15 AM 59.0 °F - - N/A% 30.02 in 10.0 mi Calm Calm - N/A Rain Light Rain
12:35 AM 59.0 °F - 59.0 °F 100% 30.02 in 7.0 mi West 9.2 mph - 0.01 in   Drizzle
12:55 AM 57.2 °F - 57.2 °F 100% 30.02 in 7.0 mi West 6.9 mph - 0.01 in Rain Rain
1:15 AM 55.4 °F - 55.4 °F 100% 30.02 in 7.0 mi West 9.2 mph - N/A   Light Drizzle
1:35 AM 55.4 °F - 55.4 °F 100% 30.03 in 10.0 mi West 12.7 mph - 0.01 in   Overcast
1:55 AM 53.6 °F - 53.6 °F 100% 30.04 in 10.0 mi West 11.5 mph - 0.01 in   Overcast
2:15 AM 53.6 °F - 53.6 °F 100% 30.04 in 10.0 mi WNW 9.2 mph - N/A   Overcast
2:35 AM 51.8 °F - 51.8 °F 100% 30.05 in 10.0 mi West 9.2 mph - N/A   Overcast
2:55 AM 51.8 °F - 51.8 °F 100% 30.05 in 10.0 mi West 10.4 mph - N/A   Overcast
3:15 AM 50.0 °F - 50.0 °F 100% 30.06 in 10.0 mi West 9.2 mph - N/A   Overcast
3:35 AM 50.0 °F - 50.0 °F 100% 30.06 in 10.0 mi West 6.9 mph - N/A   Overcast
3:55 AM 50.0 °F - 50.0 °F 100% 30.06 in 10.0 mi Calm Calm - N/A   Overcast
4:15 AM 50.0 °F - 50.0 °F 100% 30.06 in 10.0 mi Calm Calm - N/A   Mostly Cloudy
4:35 AM 46.4 °F 42.9 °F 46.4 °F 100% 30.06 in 10.0 mi NNW 6.9 mph - N/A   Scattered Clouds
4:55 AM 46.4 °F 40.7 °F 46.4 °F 100% 30.06 in 10.0 mi NNW 12.7 mph 23.0 mph N/A   Mostly Cloudy
5:15 AM 46.4 °F 41.1 °F 46.4 °F 100% 30.06 in 10.0 mi North 11.5 mph 18.4 mph N/A   Overcast
5:35 AM 46.4 °F 43.5 °F 46.4 °F 100% 30.07 in 10.0 mi North 5.8 mph - N/A   Overcast
5:55 AM 46.4 °F 43.5 °F 46.4 °F 100% 30.08 in 10.0 mi NNW 5.8 mph - N/A   Overcast
6:15 AM 46.4 °F 40.7 °F 46.4 °F 100% 30.09 in 10.0 mi NNW 12.7 mph 16.1 mph N/A   Overcast
6:35 AM 46.4 °F 41.5 °F 46.4 °F 100% 30.09 in 10.0 mi NNW 10.4 mph - N/A   Overcast
6:55 AM 46.4 °F 41.5 °F 46.4 °F 100% 30.09 in 10.0 mi NNW 10.4 mph - N/A   Overcast
7:15 AM 44.6 °F 41.4 °F 44.6 °F 100% 30.10 in 10.0 mi North 5.8 mph - N/A   Scattered Clouds
7:35 AM 44.6 °F 42.2 °F 44.6 °F 100% 30.11 in 10.0 mi North 4.6 mph - N/A   Mostly Cloudy
7:55 AM 44.6 °F 39.7 °F 44.6 °F 100% 30.11 in 10.0 mi NNW 9.2 mph - N/A   Scattered Clouds
8:15 AM 44.6 °F 39.7 °F 42.8 °F 93% 30.11 in 10.0 mi North 9.2 mph 16.1 mph N/A   Clear
8:35 AM 44.6 °F 39.2 °F 42.8 °F 93% 30.12 in 10.0 mi North 10.4 mph - N/A   Clear
8:55 AM 46.4 °F 41.5 °F 42.8 °F 87% 30.13 in - NNW 10.4 mph - N/A   Unknown
9:15 AM 46.4 °F 41.5 °F 37.4 °F 71% 30.13 in - NNW 10.4 mph 16.1 mph N/A   Clear
9:35 AM 46.4 °F 41.5 °F 37.4 °F 71% 30.14 in - NNW 10.4 mph 16.1 mph N/A   Clear
9:55 AM 48.2 °F - 35.6 °F 62% 30.15 in - NNW 10.4 mph - N/A   Clear
10:15 AM 50.0 °F - 35.6 °F 58% 30.15 in - NW 9.2 mph - N/A   Clear
10:35 AM 50.0 °F - 35.6 °F 58% 30.15 in - WNW 8.1 mph - N/A   Clear
10:55 AM 51.8 °F - 35.6 °F 54% 30.15 in - WNW 8.1 mph - N/A   Clear
11:15 AM 51.8 °F - 35.6 °F 54% 30.15 in - WNW 3.5 mph - N/A   Clear
11:35 AM 53.6 °F - 35.6 °F 51% 30.15 in - NNW 6.9 mph - N/A   Clear
11:55 AM 55.4 °F - 35.6 °F 47% 30.15 in - North 8.1 mph - N/A   Clear
1:15 PM 59.0 °F - 35.6 °F 42% 30.13 in - NNW 8.1 mph - N/A   Clear
1:55 PM 60.8 °F - 37.4 °F 42% 30.12 in - North 4.6 mph - N/A   Clear
2:15 PM 60.8 °F - 35.6 °F 39% 30.11 in - NNW 9.2 mph - N/A   Clear
2:35 PM 60.8 °F - 35.6 °F 39% 30.11 in - NNW 6.9 mph - N/A   Clear
2:55 PM 60.8 °F - 35.6 °F 39% 30.10 in - North 8.1 mph - N/A   Clear
3:15 PM 60.8 °F - 35.6 °F 39% 30.10 in - NNW 9.2 mph - N/A   Clear
3:35 PM 60.8 °F - 33.8 °F 36% 30.09 in - NNW 6.9 mph - N/A   Clear
3:55 PM 60.8 °F - 33.8 °F 36% 30.09 in 10.0 mi NW 8.1 mph - N/A   Clear
4:15 PM 60.8 °F - 35.6 °F 39% 30.09 in 10.0 mi NNW 5.8 mph - N/A   Clear
4:35 PM 60.8 °F - 35.6 °F 39% 30.09 in 10.0 mi NNW 3.5 mph - N/A   Clear
4:55 PM 60.8 °F - 35.6 °F 39% 30.09 in 10.0 mi NNW 5.8 mph - N/A   Clear
5:15 PM 60.8 °F - 33.8 °F 36% 30.08 in 10.0 mi NW 3.5 mph - N/A   Clear
5:35 PM 60.8 °F - 33.8 °F 36% 30.08 in 10.0 mi NNW 3.5 mph - N/A   Clear
5:55 PM 60.8 °F - 33.8 °F 36% 30.08 in 10.0 mi Calm Calm - N/A   Clear
6:15 PM 59.0 °F - 37.4 °F 45% 30.08 in 10.0 mi Calm Calm - N/A   Clear
6:35 PM 55.4 °F - 42.8 °F 63% 30.08 in 10.0 mi Calm Calm - N/A   Clear
6:55 PM 51.8 °F - 42.8 °F 71% 30.08 in 10.0 mi Calm Calm - N/A   Clear
7:15 PM 48.2 °F - 44.6 °F 87% 30.08 in 10.0 mi Calm Calm - N/A   Clear
7:35 PM 46.4 °F - 46.4 °F 100% 30.08 in 10.0 mi Calm Calm - N/A   Clear
7:55 PM 44.6 °F - 44.6 °F 100% 30.09 in 10.0 mi Calm Calm - N/A   Clear
8:15 PM 44.6 °F - 44.6 °F 100% 30.09 in 10.0 mi Calm Calm - N/A   Clear
8:35 PM 44.6 °F - 44.6 °F 100% 30.09 in 10.0 mi Calm Calm - N/A   Clear
8:55 PM 42.8 °F - 42.8 °F 100% 30.09 in 10.0 mi Calm Calm - N/A   Clear
9:15 PM 44.6 °F - 44.6 °F 100% 30.09 in 10.0 mi Calm Calm - N/A   Clear
9:35 PM 42.8 °F - 42.8 °F 100% 30.09 in 10.0 mi Calm Calm - N/A   Clear
9:55 PM 42.8 °F - 42.8 °F 100% 30.09 in 10.0 mi Calm Calm - N/A   Clear
10:15 PM 42.8 °F - 42.8 °F 100% 30.09 in 10.0 mi Calm Calm - N/A   Clear
10:35 PM 42.8 °F - 42.8 °F 100% 30.09 in 10.0 mi Calm Calm - N/A   Clear
10:55 PM 42.8 °F - 42.8 °F 100% 30.09 in 10.0 mi Calm Calm - N/A   Clear
11:15 PM 41.0 °F - 41.0 °F 100% 30.09 in 10.0 mi Calm Calm - N/A   Clear
11:35 PM 41.0 °F - 41.0 °F 100% 30.09 in 10.0 mi Calm Calm - N/A   Clear
11:55 PM 41.0 °F - 41.0 °F 100% 30.09 in 10.0 mi Calm Calm - N/A   Clear